Find Starlink 38026

NORAD ID: 100408 Int'l Des: 2026-192 Owner: SPXS Country: US Constellation: starlink operational

Aktuelle Ansicht

3D-Globus wird geladen...

About Starlink 38026

Starlink 38026 (NORAD 100408) is a starlink constellation satellite launched Aug 21, 2026 by SPXS of US. with a mass of 575.00 kg.

Nächste Überflüge

Passes for default location (London). Set your location on the main map for personalized predictions.

Höhenverlauf

Loading altitude history...

Zweizeiliger Elementsatz

1 A0408U 26192E 26248.25866233 .00201275 00000-0 10477-2 0 9997
2 A0408 53.1586 20.5948 0001140 51.2995 308.8130 15.79847133 3528
Epoch: 5. Sept. 2026 • Age: 8 hours

Aktueller Status

Höhe 334.7 km
Apogäum / Perigäum N/A
Geschwindigkeit 7.71 km/s
Subsatellitenpunkt 45.95°N, 126.38°W
Startdatum 21. Aug. 2026
Alter 14 days
Typ internet

Technische Details

Klassifizierung Payload
Masse 575.00 kg
Trockenmasse 530.00 kg
Gesamtmasse 575.00 kg
Länge 0.30 m
Durchmesser 4.10 m
Spannweite 29.00 m
Form Box + pan
Hersteller SPXS
Bus-Typ Starlink V2MO
Phasenstatus In Orbit
Besitzer/Staat SPXS/US

Most Searched